Flag Weather past 2 weeks in Cocoa Beach, Florida, U.S.A.

Now
59 °F

Sunny.


Feels Like: 56 °F
Forecast: 50 / 61 °F
Wind: 15 mph from Northwest

Location: Cocoa / Patrick Air Force Base

Current Time: Nov 28, 2014 at 5:58:29 PM

Latest Report: Nov 28, 2014 at 4:58 PM


Visibility: 10 mi

Pressure: 30.25 "Hg

Humidity: 64%

Dew point: 47 °F

Location of Cocoa BeachLocation

Historic Weather in Cocoa Beach — Graph

°F

Cocoa Beach temperature yesterday

Maximum temperature yesterday: 71 °F (at 2:58 PM)
Minimum temperature yesterday: 53 °F (at 6:58 AM)
Average temperature yesterday: 61 °F

Past Weeks' High & Low Weather Summary

 TemperatureHumidityPressure
High87 °F (Nov 17, 12:58 PM)100% (Nov 18, 9:00 AM)30.33 "Hg (Nov 18, 9:00 AM)
Low47 °F (Nov 19, 4:58 AM)40% (Nov 27, 3:58 PM)29.88 "Hg (Nov 26, 5:03 AM)
Average67 °F83%30.12 "Hg
* Reported Nov 13 3:58 PM — Nov 28 3:58 PM, Cocoa Beach, Weather by CustomWeather, © 2014

Note: Actual official high and low records may vary slightly from our data, if they occured in-between our weather recording intervals... More about our weather records

Advertising

Cocoa Beach weather history for previous 24 hours

 ConditionsComfort  
Time TempWeatherWind HumidityBarometerVisibility
3:58 PM
Nov 28
61 °FSunny.14 mph59%30.24 "Hg10 mi
2:58 PM62 °FSunny.15 mph56%30.24 "Hg10 mi
1:58 PM62 °FSunny.14 mph56%30.25 "Hg10 mi
12:58 PM62 °FSunny.15 mph55%30.27 "Hg10 mi
11:58 AM60 °FSunny.13 mph64%30.29 "Hg10 mi
10:58 AM58 °FSunny.16 mph66%30.31 "Hg10 mi
9:58 AM55 °FSunny.14 mph70%30.32 "Hg10 mi
8:58 AM52 °FSunny.15 mph75%30.31 "Hg10 mi
7:58 AM50 °FSunny.15 mph78%30.29 "Hg10 mi
6:58 AM49 °FSunny.17 mph77%30.27 "Hg10 mi
5:58 AM50 °FClear.20 mph75%30.26 "Hg10 mi
4:58 AM51 °FClear.18 mph72%30.25 "Hg10 mi
3:58 AM52 °FClear.16 mph70%30.25 "Hg10 mi
2:58 AM52 °FClear.18 mph69%30.25 "Hg10 mi
1:58 AM53 °FClear.18 mph61%30.26 "Hg10 mi
12:58 AM54 °FClear.23 mph60%30.26 "Hg10 mi
11:58 PM
Nov 27
55 °FClear.18 mph58%30.27 "Hg10 mi
10:58 PM56 °FClear.20 mph57%30.27 "Hg10 mi
9:58 PM58 °FClear.17 mph52%30.27 "Hg10 mi
8:58 PM59 °FClear.18 mph52%30.25 "Hg10 mi
7:58 PM61 °FClear.15 mph54%30.24 "Hg10 mi
6:58 PM63 °FClear.14 mph51%30.22 "Hg10 mi
5:58 PM65 °FClear.13 mph46%30.19 "Hg10 mi
Weather by CustomWeather, © 2014

See weather overviewHow to use our weather pages